When you browse on this site, cookies collect data to enhance your experience and personalize the content and advertising you see.
Visit our Privacy Policy to learn more. By continuing to use the site, you agree to this use of cookies and data.
  • In Sweden
  • List of Countries
  • For 7 days
  • Water Temperature
  • Weather Map
  • Weather Widgets
  • user-avatar
    Login

    Hourly Weather Hobart

    Today, 18 September, Wednesday

    Time Temperature Precipitation Wind Pressure Humidity
    00:00 +3°C° 0 mm 2 mps 756 mmHg 86%
    01:00 +2°C° 0 mm 2 mps 756 mmHg 89%
    02:00 +2°C° 0 mm 2 mps 756 mmHg 89%
    03:00 +2°C° 0 mm 2 mps 756 mmHg 90%
    04:00 +1°C° 0 mm 2 mps 756 mmHg 90%
    05:00 +2°C° 0 mm 2 mps 756 mmHg 88%
    06:00 +2°C° 0 mm 2 mps 756 mmHg 86%
    07:00 +2°C° 0 mm 2 mps 756 mmHg 84%
    08:00 +5°C° 0 mm 2 mps 756 mmHg 72%
    09:00 +8°C° 0 mm 2 mps 756 mmHg 61%
    10:00 +11°C° 0 mm 3 mps 757 mmHg 50%
    11:00 +13°C° 0 mm 2 mps 756 mmHg 45%
    12:00 +15°C° 0 mm 2 mps 756 mmHg 41%
    13:00 +16°C° 0 mm 2 mps 755 mmHg 36%
    14:00 +16°C° 0 mm 2 mps 755 mmHg 38%
    15:00 +16°C° 0 mm 2 mps 755 mmHg 39%
    16:00 +16°C° 0 mm 2 mps 755 mmHg 40%
    17:00 +13°C° 0 mm 2 mps 755 mmHg 53%
    18:00 +10°C° 0 mm 1 mps 755 mmHg 65%
    19:00 +8°C° 0 mm 1 mps 755 mmHg 78%
    20:00 +7°C° 0 mm 1 mps 755 mmHg 80%
    21:00 +7°C° 0 mm 1 mps 756 mmHg 82%
    22:00 +6°C° 0 mm 1 mps 756 mmHg 83%
    23:00 +6°C° 0 mm 1 mps 756 mmHg 85%

    Tomorrow, 19 September, Thursday

    Time Temperature Precipitation Wind Pressure Humidity
    00:00 +4°C° 0 mm 2 mps 755 mmHg 87%
    01:00 +4°C° 0 mm 2 mps 755 mmHg 88%
    02:00 +3°C° 0 mm 2 mps 755 mmHg 88%
    03:00 +3°C° 0 mm 2 mps 754 mmHg 87%
    04:00 +2°C° 0 mm 3 mps 754 mmHg 87%
    05:00 +2°C° 0 mm 3 mps 754 mmHg 84%
    06:00 +2°C° 0 mm 3 mps 754 mmHg 81%
    07:00 +3°C° 0 mm 3 mps 754 mmHg 78%
    08:00 +7°C° 0 mm 3 mps 754 mmHg 67%
    09:00 +10°C° 0 mm 3 mps 753 mmHg 56%
    10:00 +14°C° 0 mm 3 mps 753 mmHg 45%
    11:00 +16°C° 0 mm 3 mps 752 mmHg 43%
    12:00 +18°C° 0 mm 4 mps 752 mmHg 41%
    13:00 +20°C° 0 mm 4 mps 751 mmHg 39%
    14:00 +20°C° 0 mm 4 mps 751 mmHg 41%
    15:00 +20°C° 0 mm 4 mps 750 mmHg 42%
    16:00 +20°C° 0 mm 5 mps 750 mmHg 44%
    17:00 +18°C° 0 mm 4 mps 749 mmHg 52%
    18:00 +14°C° 0 mm 4 mps 749 mmHg 60%
    19:00 +12°C° 0 mm 4 mps 749 mmHg 69%
    20:00 +12°C° 0 mm 4 mps 749 mmHg 73%
    21:00 +11°C° 0 mm 4 mps 749 mmHg 78%
    22:00 +10°C° 0 mm 4 mps 750 mmHg 82%
    23:00 +10°C° 0 mm 4 mps 749 mmHg 83%

    Day after tomorrow, 20 September, Friday

    Time Temperature Precipitation Wind Pressure Humidity
    00:00 +10°C° 0 mm 3 mps 749 mmHg 83%
    01:00 +10°C° 0 mm 3 mps 749 mmHg 84%
    02:00 +10°C° 0 mm 3 mps 748 mmHg 84%
    03:00 +11°C° 0 mm 3 mps 748 mmHg 83%
    04:00 +11°C° 0 mm 3 mps 748 mmHg 83%
    05:00 +11°C° 0 mm 3 mps 748 mmHg 82%
    06:00 +12°C° 0 mm 3 mps 748 mmHg 82%
    07:00 +12°C° 0 mm 3 mps 748 mmHg 81%
    08:00 +16°C° 0 mm 3 mps 748 mmHg 70%
    09:00 +19°C° 0 mm 4 mps 748 mmHg 59%
    10:00 +22°C° 0 mm 4 mps 748 mmHg 49%
    11:00 +23°C° 0 mm 4 mps 747 mmHg 46%
    12:00 +25°C° 0 mm 5 mps 747 mmHg 44%
    13:00 +26°C° 0 mm 5 mps 747 mmHg 41%
    14:00 +25°C° 0 mm 5 mps 746 mmHg 44%
    15:00 +23°C° 0 mm 4 mps 746 mmHg 47%
    16:00 +22°C° 0 mm 4 mps 746 mmHg 50%
    17:00 +20°C° 0 mm 3 mps 746 mmHg 58%
    18:00 +18°C° 0 mm 2 mps 747 mmHg 65%
    19:00 +16°C° 0 mm 2 mps 747 mmHg 73%
    20:00 +15°C° 0 mm 2 mps 747 mmHg 78%
    21:00 +14°C° 0 mm 1 mps 747 mmHg 83%
    22:00 +13°C° 0 mm 1 mps 747 mmHg 89%
    23:00 +13°C° 0 mm 1 mps 746 mmHg 90%

    21 September, Saturday

    Time Temperature Precipitation Wind Pressure Humidity
    00:00 +13°C° 0 mm 1 mps 745 mmHg 91%
    01:00 +13°C° 0 mm 1 mps 745 mmHg 92%
    02:00 +12°C° 0 mm 1 mps 744 mmHg 94%
    03:00 +12°C° 0 mm 1 mps 743 mmHg 96%
    04:00 +12°C° 0 mm 1 mps 743 mmHg 98%
    05:00 +12°C° 0 mm 1 mps 742 mmHg 97%
    06:00 +12°C° 0 mm 1 mps 742 mmHg 96%
    07:00 +12°C° 0 mm 1 mps 742 mmHg 94%
    08:00 +12°C° 0.3 mm 2 mps 742 mmHg 95%
    09:00 +11°C° 0.3 mm 3 mps 741 mmHg 95%
    10:00 +11°C° 0.3 mm 4 mps 741 mmHg 96%
    11:00 +11°C° 0.5 mm 3 mps 740 mmHg 96%
    12:00 +11°C° 0.5 mm 3 mps 739 mmHg 96%
    13:00 +10°C° 0.5 mm 2 mps 739 mmHg 96%
    14:00 +10°C° 2.2 mm 3 mps 739 mmHg 95%
    15:00 +9°C° 2.2 mm 3 mps 739 mmHg 95%
    16:00 +8°C° 2.2 mm 4 mps 740 mmHg 94%
    17:00 +7°C° 1.1 mm 4 mps 741 mmHg 94%
    18:00 +7°C° 1.1 mm 5 mps 743 mmHg 93%
    19:00 +6°C° 1.1 mm 5 mps 744 mmHg 92%
    20:00 +5°C° 0.1 mm 4 mps 745 mmHg 92%
    21:00 +5°C° 0.1 mm 3 mps 746 mmHg 92%
    22:00 +5°C° 0.1 mm 2 mps 747 mmHg 92%
    23:00 +5°C° 0 mm 2 mps 747 mmHg 93%

    22 September, Sunday

    Time Temperature Precipitation Wind Pressure Humidity
    00:00 +4°C° 0 mm 2 mps 748 mmHg 93%
    01:00 +4°C° 0 mm 2 mps 748 mmHg 94%
    02:00 +3°C° 0 mm 2 mps 748 mmHg 94%
    03:00 +3°C° 0 mm 2 mps 749 mmHg 94%
    04:00 +3°C° 0 mm 2 mps 749 mmHg 94%
    05:00 +3°C° 0 mm 2 mps 750 mmHg 93%
    06:00 +3°C° 0 mm 2 mps 750 mmHg 93%
    07:00 +4°C° 0 mm 2 mps 751 mmHg 92%
    08:00 +6°C° 0 mm 2 mps 751 mmHg 81%
    09:00 +7°C° 0 mm 2 mps 751 mmHg 69%
    10:00 +9°C° 0 mm 2 mps 751 mmHg 58%
    11:00 +10°C° 0.1 mm 2 mps 751 mmHg 55%
    12:00 +12°C° 0.1 mm 2 mps 751 mmHg 53%
    13:00 +12°C° 0.1 mm 2 mps 751 mmHg 50%
    14:00 +10°C° 0.1 mm 2 mps 751 mmHg 58%
    15:00 +9°C° 0.1 mm 2 mps 751 mmHg 66%
    16:00 +8°C° 0.1 mm 3 mps 751 mmHg 74%
    17:00 +7°C° 0.5 mm 2 mps 751 mmHg 81%
    18:00 +6°C° 0.5 mm 2 mps 752 mmHg 88%
    19:00 +6°C° 0.5 mm 1 mps 752 mmHg 95%
    20:00 +6°C° 1.5 mm 1 mps 752 mmHg 96%
    21:00 +6°C° 1.5 mm 1 mps 752 mmHg 96%
    22:00 +6°C° 1.5 mm 1 mps 752 mmHg 97%
    23:00 +5°C° 1.3 mm 1 mps 752 mmHg 97%

    23 September, Monday

    Time Temperature Precipitation Wind Pressure Humidity
    00:00 +5°C° 1.3 mm 1 mps 752 mmHg 97%
    01:00 +4°C° 1.3 mm 0 mps 752 mmHg 98%
    02:00 +5°C° 0.2 mm 1 mps 751 mmHg 97%
    03:00 +5°C° 0.2 mm 1 mps 751 mmHg 97%
    04:00 +5°C° 0.2 mm 1 mps 751 mmHg 97%
    05:00 +5°C° 0 mm 1 mps 751 mmHg 96%
    06:00 +5°C° 0 mm 1 mps 751 mmHg 96%
    07:00 +4°C° 0 mm 0 mps 751 mmHg 95%
    08:00 +6°C° 0.1 mm 1 mps 751 mmHg 89%
    09:00 +8°C° 0.1 mm 1 mps 751 mmHg 84%
    10:00 +9°C° 0.1 mm 1 mps 751 mmHg 78%
    11:00 +9°C° 0.3 mm 1 mps 751 mmHg 77%
    12:00 +9°C° 0.3 mm 2 mps 750 mmHg 76%
    13:00 +9°C° 0.3 mm 2 mps 750 mmHg 75%
    14:00 +9°C° 0.3 mm 2 mps 750 mmHg 76%
    15:00 +8°C° 0.3 mm 2 mps 750 mmHg 77%
    16:00 +8°C° 0.3 mm 2 mps 750 mmHg 78%
    17:00 +7°C° 0.1 mm 2 mps 750 mmHg 82%
    18:00 +7°C° 0.1 mm 1 mps 751 mmHg 86%
    19:00 +5°C° 0.1 mm 1 mps 751 mmHg 90%
    20:00 +5°C° 0 mm 1 mps 751 mmHg 91%
    21:00 +5°C° 0 mm 1 mps 752 mmHg 92%
    22:00 +4°C° 0 mm 1 mps 752 mmHg 93%
    23:00 +4°C° 0 mm 1 mps 752 mmHg 94%
    Show more